• Em Portugal
  • Lista de países
  • Para 7 dias
  • Temperatura da água
  • Mapas de satélite
  • Mapa do tempo
  • Widgets de tempo
  • user-avatar
    Iniciar Sessão

    Previsão horária em Viedma

    Hoje, 24 Abril, Terça-feira

    Tempo Temperatura Precipitação Vento Pressão Humidade
    00:00 +14°C° 0 mm 4 m/s 765 mmHg 53%
    01:00 +14°C° 0 mm 4 m/s 765 mmHg 56%
    02:00 +14°C° 0 mm 4 m/s 765 mmHg 59%
    03:00 +13°C° 0 mm 4 m/s 764 mmHg 62%
    04:00 +13°C° 0 mm 4 m/s 764 mmHg 65%
    05:00 +13°C° 0 mm 4 m/s 764 mmHg 67%
    06:00 +13°C° 0 mm 4 m/s 764 mmHg 67%
    07:00 +14°C° 0 mm 5 m/s 764 mmHg 67%
    08:00 +14°C° 0 mm 5 m/s 764 mmHg 66%
    09:00 +15°C° 0 mm 5 m/s 764 mmHg 62%
    10:00 +16°C° 0 mm 6 m/s 764 mmHg 57%
    11:00 +17°C° 0 mm 6 m/s 764 mmHg 53%
    12:00 +19°C° 0 mm 6 m/s 764 mmHg 52%
    13:00 +19°C° 0 mm 6 m/s 763 mmHg 51%
    14:00 +19°C° 0 mm 6 m/s 763 mmHg 49%
    15:00 +19°C° 0 mm 5 m/s 762 mmHg 50%
    16:00 +19°C° 0 mm 5 m/s 762 mmHg 51%
    17:00 +17°C° 0 mm 5 m/s 762 mmHg 52%
    18:00 +17°C° 0 mm 5 m/s 762 mmHg 54%
    19:00 +17°C° 0 mm 5 m/s 762 mmHg 55%
    20:00 +17°C° 0 mm 5 m/s 762 mmHg 56%
    21:00 +16°C° 0,1 mm 5 m/s 762 mmHg 59%
    22:00 +16°C° 0,1 mm 6 m/s 762 mmHg 61%
    23:00 +16°C° 0,1 mm 6 m/s 762 mmHg 64%

    Amanhã, 25 Abril, Quarta-feira

    Tempo Temperatura Precipitação Vento Pressão Humidade
    00:00 +15°C° 0 mm 5 m/s 762 mmHg 69%
    01:00 +14°C° 0 mm 5 m/s 762 mmHg 74%
    02:00 +13°C° 0 mm 4 m/s 762 mmHg 80%
    03:00 +14°C° 0 mm 4 m/s 762 mmHg 80%
    04:00 +14°C° 0 mm 3 m/s 761 mmHg 81%
    05:00 +14°C° 0 mm 3 m/s 761 mmHg 82%
    06:00 +14°C° 0 mm 3 m/s 761 mmHg 81%
    07:00 +14°C° 0 mm 3 m/s 761 mmHg 80%
    08:00 +15°C° 0 mm 4 m/s 761 mmHg 80%
    09:00 +17°C° 0 mm 4 m/s 761 mmHg 74%
    10:00 +18°C° 0 mm 4 m/s 761 mmHg 69%
    11:00 +20°C° 0 mm 5 m/s 761 mmHg 64%
    12:00 +21°C° 0 mm 5 m/s 760 mmHg 59%
    13:00 +22°C° 0 mm 5 m/s 759 mmHg 54%
    14:00 +23°C° 0 mm 5 m/s 758 mmHg 49%
    15:00 +23°C° 0 mm 5 m/s 758 mmHg 52%
    16:00 +22°C° 0 mm 5 m/s 758 mmHg 55%
    17:00 +22°C° 0 mm 6 m/s 757 mmHg 58%
    18:00 +21°C° 0 mm 5 m/s 757 mmHg 65%
    19:00 +20°C° 0 mm 5 m/s 757 mmHg 71%
    20:00 +19°C° 0 mm 5 m/s 757 mmHg 78%
    21:00 +19°C° 0 mm 5 m/s 757 mmHg 78%
    22:00 +20°C° 0 mm 5 m/s 757 mmHg 78%
    23:00 +20°C° 0 mm 5 m/s 757 mmHg 77%

    Depois de amanhã, 26 Abril, Quinta-feira

    Tempo Temperatura Precipitação Vento Pressão Humidade
    00:00 +20°C° 0 mm 6 m/s 756 mmHg 78%
    01:00 +20°C° 0 mm 6 m/s 756 mmHg 79%
    02:00 +20°C° 0 mm 6 m/s 756 mmHg 81%
    03:00 +20°C° 0 mm 6 m/s 755 mmHg 83%
    04:00 +20°C° 0 mm 6 m/s 755 mmHg 84%
    05:00 +20°C° 0 mm 6 m/s 754 mmHg 86%
    06:00 +20°C° 0 mm 6 m/s 754 mmHg 86%
    07:00 +20°C° 0 mm 6 m/s 754 mmHg 85%
    08:00 +20°C° 0 mm 7 m/s 753 mmHg 85%
    09:00 +22°C° 0,1 mm 7 m/s 753 mmHg 81%
    10:00 +23°C° 0,1 mm 8 m/s 752 mmHg 77%
    11:00 +24°C° 0,1 mm 8 m/s 752 mmHg 73%
    12:00 +24°C° 0,1 mm 8 m/s 751 mmHg 71%
    13:00 +26°C° 0,1 mm 7 m/s 750 mmHg 69%
    14:00 +27°C° 0,1 mm 7 m/s 750 mmHg 67%
    15:00 +27°C° 0,1 mm 7 m/s 749 mmHg 67%
    16:00 +27°C° 0,1 mm 7 m/s 749 mmHg 67%
    17:00 +27°C° 0,1 mm 7 m/s 749 mmHg 67%
    18:00 +26°C° 0,2 mm 7 m/s 749 mmHg 73%
    19:00 +24°C° 0,2 mm 7 m/s 749 mmHg 78%
    20:00 +23°C° 0,2 mm 6 m/s 749 mmHg 83%
    21:00 +22°C° 0,1 mm 7 m/s 750 mmHg 83%
    22:00 +22°C° 0,1 mm 7 m/s 750 mmHg 83%
    23:00 +22°C° 0,1 mm 7 m/s 751 mmHg 82%

    27 Abril, Sexta-feira

    Tempo Temperatura Precipitação Vento Pressão Humidade
    00:00 +21°C° 0 mm 8 m/s 752 mmHg 68%
    01:00 +20°C° 0 mm 8 m/s 752 mmHg 53%
    02:00 +17°C° 0 mm 8 m/s 753 mmHg 39%
    03:00 +17°C° 0 mm 8 m/s 754 mmHg 42%
    04:00 +16°C° 0 mm 8 m/s 754 mmHg 45%
    05:00 +15°C° 0 mm 7 m/s 755 mmHg 48%
    06:00 +15°C° 0 mm 7 m/s 756 mmHg 50%
    07:00 +15°C° 0 mm 6 m/s 757 mmHg 53%
    08:00 +15°C° 0 mm 5 m/s 757 mmHg 55%
    09:00 +16°C° 0 mm 5 m/s 758 mmHg 47%
    10:00 +17°C° 0 mm 6 m/s 758 mmHg 39%
    11:00 +19°C° 0 mm 6 m/s 759 mmHg 32%
    12:00 +19°C° 0 mm 6 m/s 759 mmHg 30%
    13:00 +20°C° 0 mm 6 m/s 759 mmHg 27%
    14:00 +20°C° 0 mm 6 m/s 759 mmHg 25%
    15:00 +19°C° 0 mm 5 m/s 759 mmHg 26%
    16:00 +19°C° 0 mm 4 m/s 759 mmHg 26%
    17:00 +18°C° 0 mm 4 m/s 759 mmHg 27%
    18:00 +17°C° 0 mm 3 m/s 760 mmHg 28%
    19:00 +16°C° 0 mm 2 m/s 760 mmHg 30%
    20:00 +15°C° 0 mm 2 m/s 761 mmHg 31%
    21:00 +15°C° 0 mm 2 m/s 761 mmHg 31%
    22:00 +14°C° 0 mm 3 m/s 761 mmHg 30%
    23:00 +14°C° 0 mm 3 m/s 762 mmHg 30%

    28 Abril, Sábado

    Tempo Temperatura Precipitação Vento Pressão Humidade
    00:00 +14°C° 0 mm 4 m/s 762 mmHg 34%
    01:00 +13°C° 0 mm 5 m/s 762 mmHg 37%
    02:00 +13°C° 0 mm 5 m/s 762 mmHg 41%
    03:00 +13°C° 0 mm 5 m/s 763 mmHg 43%
    04:00 +13°C° 0 mm 6 m/s 763 mmHg 46%
    05:00 +13°C° 0 mm 6 m/s 763 mmHg 49%
    06:00 +13°C° 0 mm 5 m/s 764 mmHg 51%
    07:00 +12°C° 0 mm 4 m/s 764 mmHg 52%
    08:00 +12°C° 0 mm 4 m/s 764 mmHg 53%
    09:00 +13°C° 0 mm 3 m/s 765 mmHg 49%
    10:00 +14°C° 0 mm 3 m/s 765 mmHg 44%
    11:00 +17°C° 0 mm 3 m/s 766 mmHg 40%
    12:00 +17°C° 0 mm 3 m/s 765 mmHg 39%
    13:00 +17°C° 0 mm 2 m/s 765 mmHg 38%
    14:00 +17°C° 0 mm 2 m/s 765 mmHg 37%
    15:00 +17°C° 0 mm 2 m/s 765 mmHg 39%
    16:00 +16°C° 0 mm 2 m/s 765 mmHg 42%
    17:00 +16°C° 0 mm 2 m/s 765 mmHg 44%
    18:00 +15°C° 0 mm 2 m/s 765 mmHg 50%
    19:00 +15°C° 0 mm 2 m/s 765 mmHg 55%
    20:00 +13°C° 0 mm 3 m/s 765 mmHg 60%
    21:00 +13°C° 0 mm 3 m/s 765 mmHg 62%
    22:00 +13°C° 0 mm 3 m/s 765 mmHg 63%
    23:00 +13°C° 0 mm 3 m/s 765 mmHg 65%

    29 Abril, Domingo

    Tempo Temperatura Precipitação Vento Pressão Humidade
    00:00 +13°C° 0 mm 3 m/s 765 mmHg 65%
    01:00 +13°C° 0 mm 3 m/s 764 mmHg 66%
    02:00 +13°C° 0 mm 3 m/s 764 mmHg 66%
    03:00 +13°C° 0 mm 4 m/s 764 mmHg 67%
    04:00 +13°C° 0 mm 4 m/s 763 mmHg 68%
    05:00 +13°C° 0 mm 4 m/s 763 mmHg 68%
    06:00 +13°C° 0 mm 4 m/s 763 mmHg 67%
    07:00 +14°C° 0 mm 5 m/s 763 mmHg 66%
    08:00 +14°C° 0 mm 5 m/s 762 mmHg 65%
    09:00 +15°C° 0 mm 5 m/s 762 mmHg 63%
    10:00 +16°C° 0 mm 6 m/s 762 mmHg 61%
    11:00 +17°C° 0 mm 6 m/s 762 mmHg 60%
    12:00 +17°C° 0 mm 5 m/s 761 mmHg 59%
    13:00 +17°C° 0 mm 5 m/s 761 mmHg 58%
    14:00 +18°C° 0 mm 4 m/s 760 mmHg 56%
    15:00 +17°C° 0 mm 4 m/s 760 mmHg 56%
    16:00 +17°C° 0 mm 4 m/s 760 mmHg 56%
    17:00 +17°C° 0 mm 4 m/s 760 mmHg 55%
    18:00 +17°C° 0 mm 4 m/s 760 mmHg 55%
    19:00 +17°C° 0 mm 4 m/s 760 mmHg 55%
    20:00 +15°C° 0 mm 4 m/s 760 mmHg 55%
    21:00 +16°C° 0 mm 3 m/s 760 mmHg 58%
    22:00 +14°C° 0 mm 3 m/s 760 mmHg 60%
    23:00 +13°C° 0 mm 3 m/s 760 mmHg 63%
    Mostrar mais